Weather reports worldwide

Advertisment
Bonifati, Italy (16337): temperature & dewpoint: 10.09.2019 05:00:00 - 16.09.2019 05:00:00 (CEST)Bonifati, Italy (16337): wind speed: 10.09.2019 05:00:00 - 16.09.2019 05:00:00 (CEST)Bonifati, Italy (16337): wind direction: 10.09.2019 05:00:00 - 16.09.2019 05:00:00 (CEST)Bonifati, Italy (16337): reduced air pressure: 10.09.2019 05:00:00 - 16.09.2019 05:00:00 (CEST)Bonifati, Italy (16337): visibility: 10.09.2019 05:00:00 - 16.09.2019 05:00:00 (CEST)
Date & Time tt [°C] td [°C] ff [km/h] ff [kn] dd ppp [hPa] vv [km]
16.09.2019 05:00:00 - - - - - - -
16.09.2019 04:00:00 - - - - - - -
16.09.2019 03:00:00 - - - - - - -
16.09.2019 02:00:00 - - - - - - -
16.09.2019 01:00:00 - - - - - - -
16.09.2019 00:00:00 - - - - - - -
15.09.2019 23:00:00 - - - - - - -
15.09.2019 22:00:00 - - - - - - -
15.09.2019 21:00:00 - - - - - - -
15.09.2019 20:00:00 21,0 15,1 5 3 N 1020,9 20
15.09.2019 19:00:00 - - - - - - -
15.09.2019 18:00:00 - - - - - - -
15.09.2019 17:00:00 23,4 14,4 8 4 WNW 1021,1 16
15.09.2019 16:00:00 - - - - - - -
15.09.2019 15:00:00 - - - - - - -
15.09.2019 14:00:00 26,2 15,6 9 5 SW 1021,9 20
15.09.2019 13:00:00 - - - - - - -
15.09.2019 12:00:00 - - - - - - -
15.09.2019 11:00:00 24,8 16,0 9 5 SSW 1022,6 25
15.09.2019 10:00:00 - - - - - - -
15.09.2019 09:00:00 - - - - - - -
15.09.2019 08:00:00 20,8 12,2 15 8 NE 1021,8 25
15.09.2019 07:00:00 - - - - - - -
15.09.2019 06:00:00 - - - - - - -
15.09.2019 05:00:00 - - - - - - -
15.09.2019 04:00:00 - - - - - - -
15.09.2019 03:00:00 - - - - - - -
15.09.2019 02:00:00 - - - - - - -
15.09.2019 01:00:00 - - - - - - -
15.09.2019 00:00:00 - - - - - - -
14.09.2019 23:00:00 - - - - - - -
14.09.2019 22:00:00 - - - - - - -
14.09.2019 21:00:00 - - - - - - -
14.09.2019 20:00:00 20,8 16,8 8 4 N 1022,5 20
14.09.2019 19:00:00 - - - - - - -
14.09.2019 18:00:00 - - - - - - -
14.09.2019 17:00:00 23,8 13,4 15 8 NW 1021,9 16
14.09.2019 16:00:00 - - - - - - -
14.09.2019 15:00:00 - - - - - - -
14.09.2019 14:00:00 25,8 15,5 11 6 W 1022,6 20
14.09.2019 13:00:00 - - - - - - -
14.09.2019 12:00:00 - - - - - - -
14.09.2019 11:00:00 24,6 14,1 5 3 W 1022,8 20
14.09.2019 10:00:00 - - - - - - -
14.09.2019 09:00:00 - - - - - - -
14.09.2019 08:00:00 20,2 10,6 15 8 NE 1023,6 20
14.09.2019 07:00:00 - - - - - - -
14.09.2019 06:00:00 - - - - - - -
14.09.2019 05:00:00 - - - - - - -
14.09.2019 04:00:00 - - - - - - -
14.09.2019 03:00:00 - - - - - - -
14.09.2019 02:00:00 - - - - - - -
14.09.2019 01:00:00 - - - - - - -
14.09.2019 00:00:00 - - - - - - -
13.09.2019 23:00:00 - - - - - - -
13.09.2019 22:00:00 - - - - - - -
13.09.2019 21:00:00 - - - - - - -
13.09.2019 20:00:00 22,0 18,8 5 3 NNE 1023,2 20
13.09.2019 19:00:00 - - - - - - -
13.09.2019 18:00:00 - - - - - - -
13.09.2019 17:00:00 27,0 13,4 18 10 SW 1022,3 20
13.09.2019 16:00:00 - - - - - - -
13.09.2019 15:00:00 - - - - - - -
13.09.2019 14:00:00 27,2 11,3 13 7 E 1022,4 20
13.09.2019 13:00:00 - - - - - - -
13.09.2019 12:00:00 - - - - - - -
13.09.2019 11:00:00 24,6 13,2 9 5 ENE 1024,0 20
13.09.2019 10:00:00 - - - - - - -
13.09.2019 09:00:00 - - - - - - -
13.09.2019 08:00:00 21,2 15,3 2 1 NE 1024,4 20
13.09.2019 07:00:00 - - - - - - -
13.09.2019 06:00:00 - - - - - - -
13.09.2019 05:00:00 - - - - - - -
13.09.2019 04:00:00 - - - - - - -
13.09.2019 03:00:00 - - - - - - -
13.09.2019 02:00:00 - - - - - - -
13.09.2019 01:00:00 - - - - - - -
13.09.2019 00:00:00 - - - - - - -
12.09.2019 23:00:00 - - - - - - -
12.09.2019 22:00:00 - - - - - - -
12.09.2019 21:00:00 - - - - - - -
12.09.2019 20:00:00 21,8 18,6 5 3 NW 1023,4 20
12.09.2019 19:00:00 - - - - - - -
12.09.2019 18:00:00 - - - - - - -
12.09.2019 17:00:00 24,0 18,7 9 5 W 1022,9 19
12.09.2019 16:00:00 - - - - - - -
12.09.2019 15:00:00 - - - - - - -
12.09.2019 14:00:00 24,2 15,4 11 6 W 1023,1 10
12.09.2019 13:00:00 - - - - - - -
12.09.2019 12:00:00 - - - - - - -
12.09.2019 11:00:00 24,0 16,8 5 3 W 1022,9 20
12.09.2019 10:00:00 - - - - - - -
12.09.2019 09:00:00 - - - - - - -
12.09.2019 08:00:00 21,2 14,8 0 0 N 1021,9 20
12.09.2019 07:00:00 - - - - - - -
12.09.2019 06:00:00 - - - - - - -
12.09.2019 05:00:00 - - - - - - -
12.09.2019 04:00:00 - - - - - - -
12.09.2019 03:00:00 - - - - - - -
12.09.2019 02:00:00 - - - - - - -
12.09.2019 01:00:00 - - - - - - -
12.09.2019 00:00:00 - - - - - - -
11.09.2019 23:00:00 - - - - - - -
11.09.2019 22:00:00 - - - - - - -
11.09.2019 21:00:00 - - - - - - -
11.09.2019 20:00:00 21,0 15,8 11 6 WSW 1018,2 20
11.09.2019 19:00:00 - - - - - - -
11.09.2019 18:00:00 - - - - - - -
11.09.2019 17:00:00 24,8 14,6 21 11 WNW 1016,4 20
11.09.2019 16:00:00 - - - - - - -
11.09.2019 15:00:00 - - - - - - -
11.09.2019 14:00:00 26,0 12,8 18 10 N 1015,4 20
11.09.2019 13:00:00 - - - - - - -
11.09.2019 12:00:00 - - - - - - -
11.09.2019 11:00:00 24,0 11,7 24 13 NNW 1015,0 18
11.09.2019 10:00:00 - - - - - - -
11.09.2019 09:00:00 - - - - - - -
11.09.2019 08:00:00 19,2 14,2 29 16 NE 1013,8 18
11.09.2019 07:00:00 - - - - - - -
11.09.2019 06:00:00 - - - - - - -
11.09.2019 05:00:00 - - - - - - -
11.09.2019 04:00:00 - - - - - - -
11.09.2019 03:00:00 - - - - - - -
11.09.2019 02:00:00 - - - - - - -
11.09.2019 01:00:00 - - - - - - -
11.09.2019 00:00:00 - - - - - - -
10.09.2019 23:00:00 - - - - - - -
10.09.2019 22:00:00 - - - - - - -
10.09.2019 21:00:00 - - - - - - -
10.09.2019 20:00:00 20,8 15,4 26 14 NE 1011,8 20
10.09.2019 19:00:00 - - - - - - -
10.09.2019 18:00:00 - - - - - - -
10.09.2019 17:00:00 24,4 16,1 8 4 SW 1011,6 20
10.09.2019 16:00:00 - - - - - - -
10.09.2019 15:00:00 - - - - - - -
10.09.2019 14:00:00 23,0 15,6 5 3 SE 1013,4 20
10.09.2019 13:00:00 - - - - - - -
10.09.2019 12:00:00 - - - - - - -
10.09.2019 11:00:00 22,8 14,6 9 5 ESE 1013,9 18
10.09.2019 10:00:00 - - - - - - -
10.09.2019 09:00:00 - - - - - - -
10.09.2019 08:00:00 17,0 10,8 0 0 N 1014,9 10
10.09.2019 07:00:00 - - - - - - -
10.09.2019 06:00:00 - - - - - - -
10.09.2019 05:00:00 - - - - - - -

tt = temperature
td = dewpoint
ff = wind speed
dd = wind direction
ppp = reduced air pressure
vv = visibility

Next stations